Probability
6 6 6 3 3 3 3 0 0 0 0 0 3 3 3 3 3 3 3 0 0 0 6 3 3 3 6 3 6 3 0 3 0 3 3 0 6 6 6 3 3 0 0
3 3 3 3 3 3 0 0 0 0 0 0 0 3 3 3 3 3 3 0 0 0 0 6 3 3 3 3 3 3 0 0 0 0 0 0 0 0 6 3 3 0 0
3 3 3 3 3 0 0 0 0 0 0 0 0 0 0 3 3 3 3 3 0 0 0 3 3 3 3 3 3 3 3 0 0 0 0 0 0 0 0 0 3 0 0
3 3 3 3 3 0 0 0 0 0 0 0 0 0 0 0 3 3 3 3 3 0 0 0 0 3 3 3 3 3 3 3 0 0 0 0 0 0 0 0 0 0 0
3 3 3 3 0 0 0 0 0 0 0 0 0 0 0 0 0 0 3 3 0 0 0 0 0 0 3 3 3 3 3 3 3 0 0 0 0 0 0 0 0 0 0
3 3 3 0 0 0 0 0 0 0 0 0 0 0 0 0 0 0 3 3 0 0 0 0 0 0 0 0 3 3 3 3 3 3 0 0 0 0 0 0 0 0 0
3 3 0 0 0 0 0 0 0 0 0 0 0 0 0 0 0 0 3 3 0 0 0 0 0 0 0 0 0 3 3 3 3 3 3 0 0 0 0 0 0 0 0
3 3 0 0 0 0 0 0 0 0 0 0 0 0 0 0 0 0 0 0 0 0 0 0 0 0 0 0 0 0 0 3 3 3 3 0 0 0 0 0 0 0 0
3 3 0 0 0 0 0 0 0 0 0 0 0 0 0 0 0 0 0 0 0 0 0 0 0 0 0 0 0 0 0 0 3 3 3 3 0 0 0 0 0 0 0
3 3 0 0 0 0 0 0 0 0 0 0 0 0 0 0 0 0 0 0 0 0 0 0 0 0 0 0 0 0 0 0 0 0 3 3 3 0 0 0 0 0 0
3 3 0 0 0 0 0 0 0 0 0 0 0 0 0 0 0 0 0 0 0 0 0 0 0 0 0 0 0 0 0 0 0 0 0 3 0 0 0 0 0 0 0
3 3 0 0 0 0 0 0 0 0 0 0 0 0 0 0 0 0 0 0 0 0 0 0 0 0 0 0 0 0 0 0 0 0 0 0 0 0 0 0 0 0 0
3 0 0 0 0 0 0 0 0 0 0 0 0 0 0 0 0 0 0 0 0 0 0 0 0 0 0 0 0 0 0 0 0 0 0 0 0 0 0 0 0 0 0
0 0 0 0 0 0 0 0 0 0 0 0 0 0 0 0 0 0 0 0 0 0 0 0 0 0 0 0 0 0 0 0 0 0 0 0 0 0 0 0 0 0 0
0 0 0 0 0 0 0 0 0 0 0 0 0 0 0 0 0 0 0 0 0 0 0 0 0 0 0 0 0 0 0 0 0 0 0 0 0 0 0 0 0 0 0
0 0 0 0 0 0 0 0 0 0 0 0 0 0 0 0 0 0 0 0 0 0 0 0 0 0 0 0 0 0 0 0 0 0 0 0 0 0 0 0 0 0 0
0 0 0 0 0 0 0 0 0 0 0 0 0 0 0 0 0 0 0 0 0 0 0 0 0 0 0 0 0 0 0 0 0 0 0 0 0 0 0 0 0 0 0
0 0 0 0 0 0 0 0 0 0 0 0 0 0 0 0 0 0 0 0 0 0 0 0 0 0 0 0 0 0 0 0 0 0 0 0 0 0 0 0 0 0 0
0 0 0 0 0 0 0 0 0 0 0 0 0 0 0 0 0 0 0 0 0 0 0 0 0 0 0 0 0 0 0 0 0 0 0 0 0 0 0 0 0 0 0
0 0 0 0 0 0 0 0 0 0 0 0 0 0 0 0 0 0 0 0 0 0 0 0 0 0 0 0 0 0 0 0 0 0 0 0 0 0 0 0 0 0 0
0 0 0 0 0 0 0 0 0 0 0 0 0 0 0 0 0 0 0 0 0 0 0 0 0 0 0 0 0 0 0 0 0 0 0 0 0 0 0 0 0 0 0
0 0 0 0 0 0 0 0 0 0 0 0 0 0 0 0 0 0 0 0 0 0 0 0 0 0 0 0 0 0 0 0 0 0 0 0 0 0 0 0 0 0 0
0 0 0 0 0 0 0 0 0 0 0 0 0 0 0 0 0 0 0 0 0 0 0 0 0 0 0 0 0 0 0 0 0 0 0 0 0 0 0 0 0 0 0
0 0 0 0 0 0 0 0 0 0 0 0 0 0 0 0 0 0 0 0 0 0 0 0 0 0 0 0 0 0 0 0 0 0 0 0 0 0 0 0 0 0 0
0 0 0 0 0 0 0 0 0 0 0 0 0 0 0 0 0 0 0 0 0 0 0 0 0 0 0 0 0 0 0 0 0 0 0 0 0 0 0 0 0 0 0
0 0 0 0 0 0 0 0 0 0 0 0 0 0 0 0 0 0 0 0 0 0 0 0 0 0 0 0 0 0 0 0 0 0 0 0 0 0 0 0 0 0 0
Height
5780 5781 5782 5783 5784 5785 5786 5786 5786 5787 5787 5787 5787 5788 5788 5788 5788 5788 5789 5790 5790 5790 5791 5791 5791 5792 5792 5792 5792 5792 5792 5792 5792 5791 5791 5790 5789 5789 5788 5787 5786 5785 5783
5771 5772 5773 5774 5775 5776 5777 5777 5777 5778 5778 5778 5778 5778 5779 5779 5779 5779 5780 5780 5781 5781 5781 5782 5782 5783 5783 5783 5783 5783 5783 5783 5782 5782 5782 5781 5780 5779 5779 5777 5776 5775 5774
5762 5763 5764 5765 5766 5766 5767 5767 5768 5768 5768 5768 5768 5769 5769 5769 5769 5769 5770 5770 5771 5771 5771 5772 5772 5773 5773 5773 5773 5773 5773 5773 5772 5772 5772 5771 5770 5770 5769 5767 5766 5765 5764
5751 5752 5753 5754 5755 5756 5757 5757 5758 5758 5758 5758 5758 5758 5759 5758 5759 5759 5759 5759 5760 5761 5761 5761 5762 5762 5762 5763 5763 5763 5763 5762 5762 5761 5761 5760 5760 5759 5757 5756 5755 5754 5753
5740 5741 5743 5744 5745 5746 5746 5747 5747 5747 5747 5748 5747 5747 5748 5748 5748 5748 5748 5748 5749 5749 5750 5750 5750 5751 5751 5751 5751 5751 5751 5751 5750 5750 5749 5749 5748 5747 5746 5745 5744 5743 5741
5729 5730 5731 5732 5733 5734 5735 5735 5736 5736 5736 5736 5736 5736 5736 5736 5736 5736 5736 5736 5737 5737 5737 5738 5738 5739 5739 5739 5739 5739 5739 5739 5738 5737 5737 5737 5736 5735 5734 5733 5732 5731 5730
5717 5718 5719 5721 5722 5723 5723 5724 5724 5724 5724 5724 5724 5725 5725 5724 5724 5724 5724 5724 5724 5724 5725 5725 5725 5726 5726 5726 5726 5726 5726 5726 5725 5724 5724 5724 5723 5722 5721 5721 5720 5718 5717
5705 5706 5708 5709 5710 5710 5711 5711 5711 5711 5712 5711 5711 5711 5712 5713 5712 5711 5711 5711 5711 5711 5711 5711 5712 5712 5712 5712 5712 5712 5712 5712 5712 5711 5711 5711 5710 5710 5709 5708 5707 5706 5705
5694 5695 5695 5696 5697 5698 5699 5698 5698 5699 5699 5698 5698 5698 5698 5699 5699 5699 5698 5698 5698 5698 5698 5698 5698 5698 5698 5698 5698 5698 5698 5698 5698 5698 5697 5697 5697 5697 5696 5695 5694 5693 5692
5681 5682 5683 5684 5684 5685 5685 5685 5685 5685 5685 5685 5685 5684 5684 5684 5685 5686 5686 5685 5684 5684 5684 5685 5685 5685 5685 5685 5685 5685 5684 5684 5684 5684 5684 5684 5684 5684 5683 5681 5680 5679 5679
5669 5670 5670 5671 5672 5672 5672 5672 5672 5672 5672 5672 5672 5671 5671 5671 5671 5671 5673 5672 5671 5671 5671 5671 5671 5672 5672 5671 5671 5671 5671 5671 5671 5671 5671 5671 5670 5670 5669 5668 5667 5666 5665
5657 5658 5658 5659 5659 5659 5659 5659 5658 5658 5659 5659 5659 5658 5658 5658 5658 5658 5659 5659 5659 5659 5658 5658 5659 5659 5658 5658 5658 5658 5658 5658 5658 5657 5657 5657 5657 5657 5656 5655 5654 5653 5652
5645 5646 5646 5646 5646 5646 5646 5645 5645 5645 5646 5646 5646 5646 5645 5645 5646 5645 5646 5646 5647 5647 5646 5646 5646 5646 5645 5645 5645 5645 5645 5644 5644 5644 5644 5644 5643 5643 5643 5642 5641 5640 5639
5633 5634 5633 5634 5633 5633 5633 5632 5632 5632 5632 5633 5633 5633 5633 5633 5633 5634 5634 5634 5635 5635 5635 5635 5634 5633 5633 5633 5632 5632 5632 5631 5631 5631 5630 5630 5630 5630 5629 5629 5628 5627 5626
5621 5621 5621 5621 5621 5621 5620 5620 5619 5620 5620 5620 5620 5620 5620 5621 5621 5622 5622 5623 5624 5624 5625 5624 5623 5622 5621 5620 5620 5619 5619 5618 5618 5618 5617 5617 5616 5616 5615 5615 5614 5614 5613
5609 5609 5609 5609 5608 5608 5608 5607 5607 5607 5607 5607 5607 5608 5608 5609 5609 5610 5610 5611 5612 5612 5613 5612 5611 5610 5609 5609 5608 5607 5607 5606 5605 5605 5604 5604 5603 5603 5602 5601 5601 5600 5600
5597 5597 5597 5596 5596 5595 5595 5595 5595 5595 5595 5595 5595 5595 5596 5597 5597 5598 5599 5600 5600 5601 5601 5601 5599 5599 5599 5599 5597 5596 5595 5594 5594 5593 5592 5591 5591 5590 5589 5588 5587 5587 5586
5586 5585 5585 5584 5584 5583 5583 5583 5582 5582 5582 5582 5582 5583 5584 5584 5586 5587 5588 5589 5589 5589 5589 5589 5589 5589 5588 5588 5587 5586 5584 5583 5583 5582 5581 5580 5579 5578 5576 5575 5574 5574 5573
5574 5574 5573 5573 5572 5572 5571 5571 5571 5571 5571 5571 5570 5571 5571 5572 5574 5575 5576 5577 5578 5578 5578 5579 5579 5579 5578 5577 5576 5576 5574 5573 5572 5571 5569 5569 5567 5566 5565 5563 5562 5561 5560
5563 5562 5562 5562 5561 5561 5560 5560 5560 5560 5560 5560 5560 5560 5560 5561 5562 5564 5565 5566 5567 5568 5568 5568 5569 5569 5568 5567 5566 5565 5564 5562 5561 5560 5559 5557 5556 5554 5553 5551 5550 5549 5548
5552 5552 5551 5551 5551 5550 5549 5549 5549 5549 5549 5550 5550 5550 5550 5551 5552 5553 5554 5555 5556 5557 5558 5558 5559 5559 5559 5558 5557 5555 5554 5553 5551 5550 5549 5547 5546 5543 5541 5540 5538 5537 5536
5542 5542 5541 5541 5540 5540 5539 5539 5539 5539 5539 5540 5540 5540 5541 5541 5542 5543 5544 5545 5546 5547 5547 5548 5549 5549 5548 5548 5547 5545 5544 5544 5543 5541 5539 5537 5535 5532 5530 5529 5527 5526 5525
5532 5532 5531 5531 5531 5530 5530 5529 5529 5529 5530 5530 5531 5531 5531 5532 5532 5533 5533 5534 5535 5536 5537 5538 5539 5539 5539 5538 5537 5536 5534 5533 5532 5530 5529 5527 5524 5522 5520 5518 5516 5515 5514
5523 5522 5522 5521 5521 5521 5520 5520 5519 5520 5521 5521 5522 5522 5522 5522 5523 5524 5524 5525 5526 5526 5527 5528 5529 5529 5529 5528 5527 5526 5525 5524 5522 5520 5519 5517 5514 5512 5510 5508 5507 5505 5504
5513 5513 5513 5512 5512 5512 5511 5511 5510 5511 5511 5512 5513 5513 5513 5514 5514 5515 5515 5516 5516 5517 5517 5517 5518 5519 5518 5518 5517 5517 5516 5515 5514 5512 5509 5508 5505 5503 5501 5500 5498 5496 5495
5504 5504 5504 5504 5504 5504 5503 5502 5502 5502 5503 5504 5504 5504 5504 5505 5505 5505 5506 5506 5507 5507 5507 5508 5508 5509 5509 5509 5508 5507 5506 5505 5504 5503 5501 5498 5496 5495 5494 5492 5490 5488 5487
Wind_Speed
39 38 38 38 38 38 37 37 37 37 37 37 37 37 37 38 38 39 38 38 38 37 37 37 37 37 37 37 37 37 37 37 37 37 37 38 38 38 38 39 39 40 40
41 40 40 40 40 40 40 40 40 40 40 40 40 40 40 40 40 40 40 40 40 40 40 40 40 39 39 39 39 39 39 40 40 40 40 40 40 41 41 41 42 42 42
44 43 43 43 42 42 42 42 42 42 42 42 42 42 42 42 42 42 42 42 42 42 42 42 42 42 41 41 41 41 42 42 43 43 42 43 43 44 44 44 44 44 44
45 45 45 45 45 44 43 44 44 44 44 43 43 43 43 43 44 44 44 44 44 44 44 44 44 43 43 44 44 44 44 45 45 45 45 45 46 46 46 46 46 46 45
47 47 47 46 46 46 46 46 46 46 45 45 44 44 44 45 45 46 46 46 46 46 46 45 45 46 46 46 46 46 46 47 47 47 47 47 47 47 48 47 47 46 46
47 47 48 47 47 47 47 47 47 47 47 46 46 46 46 46 47 48 48 47 47 48 47 47 48 48 48 48 48 48 48 49 49 49 48 48 48 49 48 48 48 48 47
48 48 48 47 48 48 48 48 48 48 48 48 48 48 48 49 49 49 49 49 49 49 50 50 50 50 50 50 50 51 51 51 51 50 50 50 50 49 49 48 48 48 48
47 48 49 49 48 48 48 49 49 49 49 49 50 50 50 51 50 50 50 51 51 51 51 51 51 51 51 52 52 52 52 52 52 51 51 51 50 50 49 49 49 49 50
48 48 49 49 49 49 49 50 50 51 51 51 51 51 51 51 51 51 51 52 51 51 51 51 51 51 52 52 52 51 51 51 51 51 51 50 50 50 50 50 50 50 51
48 48 48 49 49 49 50 51 51 51 51 51 51 51 51 51 51 51 51 52 52 51 51 51 51 51 51 51 51 51 51 51 50 50 50 50 51 51 51 51 50 50 50
48 48 48 49 49 50 50 50 51 51 51 51 51 51 51 51 51 51 50 51 51 51 51 51 50 50 51 51 51 51 50 50 50 51 51 51 52 51 51 51 51 50 50
47 48 48 48 48 49 49 49 50 50 51 51 51 51 51 50 49 49 49 49 50 50 50 50 50 50 50 50 50 50 50 50 50 51 51 51 51 51 51 50 50 50 49
47 47 48 48 48 48 48 48 49 49 50 50 51 50 50 49 48 48 48 48 48 48 49 49 50 49 49 50 50 50 50 50 50 51 51 50 50 50 49 50 49 49 49
46 47 48 48 48 48 47 47 47 48 48 49 50 50 49 48 48 47 47 47 47 47 47 48 48 49 48 48 49 49 49 49 50 50 49 49 49 49 49 49 49 48 48
45 45 46 46 46 47 47 47 47 47 47 48 48 48 48 47 47 45 45 47 47 46 46 46 46 47 47 47 47 47 47 48 48 48 48 48 49 49 49 50 50 49 48
44 44 44 44 45 45 45 45 45 45 46 47 47 46 46 46 45 44 45 45 45 45 46 45 45 45 44 44 45 45 46 46 46 46 47 47 47 48 48 49 49 49 48
43 43 43 43 44 44 44 44 44 45 46 46 47 46 46 46 45 45 44 44 44 44 44 43 43 42 42 42 43 43 44 45 45 44 44 45 46 46 47 47 48 48 48
41 41 41 42 43 43 43 42 42 42 43 44 45 45 46 45 45 45 44 44 43 42 42 41 40 39 40 40 41 42 44 44 43 43 42 43 45 45 46 46 47 47 48
39 40 40 40 39 39 39 39 40 40 41 41 42 43 43 44 45 45 44 43 43 42 41 40 39 39 39 38 39 40 41 42 41 41 41 42 43 44 45 45 46 46 47
37 37 37 38 38 37 38 38 38 39 39 39 39 39 41 41 42 43 43 43 42 41 40 39 39 39 38 37 37 38 39 40 40 40 41 41 42 43 43 43 43 43 43
36 36 36 37 37 37 37 37 37 37 37 37 37 37 38 39 39 39 40 41 41 40 40 39 38 38 37 36 36 37 38 39 40 40 41 41 41 41 40 40 40 40 40
35 36 36 36 36 36 36 36 36 36 36 36 36 36 36 37 37 38 38 39 39 39 39 39 38 37 36 36 36 37 38 37 38 39 39 39 39 38 38 38 38 37 37
34 34 34 34 34 34 35 35 36 35 35 35 34 34 35 35 36 37 37 38 38 38 39 38 38 37 37 36 36 37 37 36 37 37 37 37 37 37 37 36 35 35 35
33 33 33 33 33 33 34 34 34 35 34 34 34 33 34 34 35 35 36 37 37 37 38 38 38 38 37 35 35 36 35 35 34 35 35 35 36 35 35 34 33 34 34
32 32 31 31 32 31 31 31 32 33 33 32 32 32 33 33 34 34 35 35 35 36 37 38 37 36 35 34 34 34 34 33 33 33 33 34 34 33 32 31 31 31 30
30 30 30 30 29 29 29 29 29 30 31 31 31 31 31 31 31 32 33 34 35 36 36 36 35 34 33 32 33 33 33 32 32 32 31 31 31 30 29 29 29 29 27
Wind_Direction
256 256 257 258 258 259 260 260 261 262 262 262 262 263 263 262 261 261 262 262 261 262 262 263 264 265 266 267 267 269 270 270 271 272 273 274 275 275 276 277 278 279 280
257 258 258 258 259 260 260 261 261 262 263 264 264 264 264 263 262 262 262 263 262 263 263 263 264 266 267 267 268 269 269 270 271 273 274 274 275 276 276 277 278 278 279
258 258 259 259 260 260 261 262 262 263 263 264 264 265 265 264 262 262 263 263 264 264 263 264 265 266 266 267 268 269 269 270 271 272 273 274 275 276 276 276 277 278 278
258 259 259 260 260 261 262 263 263 263 264 264 264 265 265 264 263 262 263 264 264 264 264 264 265 266 266 267 268 268 269 270 271 272 273 274 275 276 276 277 277 277 278
259 259 260 260 261 261 262 262 263 264 264 265 265 265 265 265 264 263 262 263 264 264 264 265 265 266 267 267 267 268 269 270 271 271 272 273 274 275 277 277 278 278 278
260 260 260 260 261 261 261 262 263 264 265 266 266 265 265 265 265 264 264 264 264 264 265 266 266 266 267 267 268 268 269 270 271 272 272 273 274 275 276 276 277 278 278
260 260 260 260 260 262 262 263 264 264 264 265 265 266 265 265 266 265 264 264 265 266 266 267 267 267 267 267 268 268 269 270 271 271 272 272 273 274 275 276 277 277 278
260 260 261 260 261 261 263 263 264 264 265 265 265 266 266 266 265 265 265 265 267 268 267 267 267 267 267 268 268 268 269 269 270 271 272 272 273 274 274 275 276 277 277
260 261 262 261 262 262 263 264 264 264 264 265 266 266 266 266 265 265 266 266 267 268 267 267 267 267 268 268 268 268 268 268 269 270 271 272 272 273 274 275 276 276 277
260 262 261 261 262 263 264 265 265 265 265 265 266 266 266 267 266 265 266 266 267 267 267 267 268 268 268 268 269 269 268 268 268 269 271 271 273 273 274 275 275 276 277
261 262 262 262 263 264 265 265 265 265 266 266 266 266 265 266 267 267 266 265 265 266 267 267 268 268 269 269 269 269 268 268 269 269 271 272 273 273 274 274 275 275 276
261 262 262 263 264 265 265 265 265 265 265 266 266 265 266 266 266 266 265 264 264 265 267 268 269 269 269 270 269 269 269 269 269 270 271 272 273 273 273 274 274 275 275
261 261 262 263 264 265 265 265 265 265 265 265 265 265 266 266 266 266 265 264 264 266 267 269 270 271 271 270 270 270 269 269 269 270 271 272 272 273 273 274 274 274 275
261 261 263 263 264 265 265 264 264 265 265 265 265 265 266 265 266 265 265 265 265 266 268 269 271 272 272 271 272 271 270 270 270 270 271 271 272 272 273 273 273 273 274
262 262 263 264 265 265 265 264 264 265 266 265 265 264 264 264 265 265 265 266 266 266 267 269 271 272 271 271 272 272 271 272 272 271 271 271 271 272 273 272 271 272 273
263 264 265 265 266 266 266 266 265 265 266 266 265 264 262 263 264 264 265 266 267 267 268 268 270 270 271 271 272 273 273 273 273 271 271 272 272 273 273 272 271 271 271
265 266 266 266 267 266 266 266 266 266 266 265 264 263 261 261 262 263 263 264 266 269 269 270 270 269 269 271 273 274 274 274 273 271 272 273 274 274 274 273 272 271 271
266 266 266 267 267 267 266 266 266 266 266 265 264 263 261 261 261 262 262 263 266 268 268 268 269 268 271 273 273 274 275 274 273 273 274 274 275 276 276 275 273 271 270
266 267 266 266 266 267 266 265 266 266 267 266 265 263 261 261 260 260 261 262 264 267 268 267 266 269 271 273 274 275 275 275 274 274 276 276 276 277 277 275 273 272 271
267 267 266 265 266 266 266 265 265 266 266 266 266 264 263 262 262 261 260 262 264 265 266 265 265 268 271 273 274 275 275 275 273 275 278 278 278 279 278 276 275 273 272
267 267 268 266 267 267 267 266 266 266 266 266 266 265 263 262 261 261 260 261 262 264 263 263 264 267 271 273 274 274 275 274 274 276 278 279 279 280 278 276 275 274 272
266 267 267 267 267 267 267 266 265 266 266 266 266 265 263 262 261 261 262 262 262 262 262 262 263 267 271 273 274 275 275 275 277 278 278 279 280 281 279 277 275 274 273
267 268 268 267 267 267 267 267 266 266 266 266 266 266 265 263 262 262 262 262 262 261 260 261 263 266 270 273 275 275 276 278 279 279 279 280 279 281 280 276 275 275 274
268 268 268 268 268 268 268 267 267 265 265 265 265 266 265 263 262 263 262 262 262 262 261 262 264 267 270 273 275 275 275 278 279 280 281 282 280 280 280 277 275 276 275
270 269 268 269 269 269 270 268 267 266 265 264 265 265 264 263 262 263 263 263 262 262 262 264 266 268 271 272 274 274 276 279 279 281 282 282 280 279 279 277 276 276 275
269 268 268 269 270 270 271 270 268 267 266 264 264 265 264 263 262 263 264 264 263 263 263 264 266 269 271 272 274 275 276 277 278 280 281 280 278 277 278 277 276 277 276